Regional Weather Roundup
Issued by NWS

Home | Current Version | Previous Version | Text Only | Print | Product List | Glossary On
Versions: 1 2 3 4 5 6 7 8 9 10 11 12 13 14 15 16 17 18 19 20 21 22 23 24 25 26 27 28 29 30 31 32 33 34 35 36 37 38 39 40 41 42 43 44 45 46 47 48 49 50
000
ASUS43 KMKX 221911
RWRWI

WISCONSIN REGIONAL WEATHER ROUNDUP
NATIONAL WEATHER SERVICE MILWAUKEE/SULLIVAN WI
100 PM CST WED NOV 22 2017

NOTE: "FAIR" INDICATES FEW OR NO CLOUDS BELOW 12,000 FEET WITH NO
SIGNIFICANT WEATHER AND/OR OBSTRUCTIONS TO VISIBILITY.

WIZ001-002-006>008-014>016-023>028-222000-
NORTHWEST WISCONSIN

CITY           SKY/WX    TMP DP  RH WIND       PRES   REMARKS
SUPERIOR ARPT  CLOUDY    24  12  60 SW10G16   30.17F WCI  13
ASHLAND        CLOUDY    24  11  57 S10       30.17F WCI  14
HAYWARD        MOSUNNY   23  11  60 SW8       30.16F WCI  14
SIREN          CLOUDY    24  13  63 S7        30.17F WCI  16
CUMBERLAND     CLOUDY    23  12  63 SW12      30.17F WCI  12
RICE LAKE      CLOUDY    23  13  65 S8        30.21F WCI  14
CHETEK         CLOUDY    23  12  62 S8        30.21F WCI  14
LADYSMITH      CLOUDY    24  12  62 S9        30.20F WCI  14
EAU CLAIRE     CLOUDY    24  10  55 S9        30.22F WCI  14
MENOMONIE      CLOUDY    26  12  57 S8        30.22F WCI  17
NEW RICHMOND   MOSUNNY   24  12  59 S9        30.20F WCI  15
OSCEOLA        CLOUDY    24  14  65 S10       30.22F WCI  13
$$

WIZ003>005-009-010-017-018-222000-
NORTH CENTRAL WISCONSIN

CITY           SKY/WX    TMP DP  RH WIND       PRES   REMARKS
MANITOWISH WTR MOSUNNY   23  11  61 S10       30.13F WCI  12
ARBOR VITAE    CLOUDY    25  13  60 SW8       30.14S WCI  16
WOODRUFF       CLOUDY    25  13  60 SW8       30.14S WCI  16
RHINELANDER    CLOUDY    24  11  57 S9        30.15F WCI  14
EAGLE RIVER    CLOUDY    23  11  59 SW9       30.13F WCI  13
LAND O LAKES   MOSUNNY   24  12  61 SW8       30.14F WCI  15
PHILLIPS       CLOUDY    22  11  62 SW8       30.16F WCI  13
TOMAHAWK       CLOUDY    24  10  55 S5        30.17F WCI  19
MEDFORD        CLOUDY    24  13  63 S10       30.18F WCI  13
MERRILL        MOSUNNY   26  12  55 SW7       30.19F WCI  18
$$

WIZ029-030-035-036-043>047-222000-
CENTRAL WISCONSIN

CITY           SKY/WX    TMP DP  RH WIND       PRES   REMARKS
WAUSAU         MOSUNNY   25  12  58 SW9       30.19F WCI  15
MOSINEE        PTSUNNY   25  12  58 SW8       30.22F WCI  16
MARSHFIELD     CLOUDY    25  11  55 S12       30.20F WCI  14
STEVENS POINT  MOSUNNY   25  10  54 SW6       30.22F WCI  18
WAUPACA        CLOUDY    31  12  45 SW6       30.25F WCI  25
WAUTOMA        CLOUDY    28  13  53 SW8       30.25  WCI  20
WISC RAPIDS    CLOUDY    26  14  60 SW8       30.25F WCI  18
CAMP DOUGLAS   CLOUDY    28  12  50 SW5       30.25F WCI  23
$$

WIZ011>013-019>022-031-037>040-048>050-222000-
NORTHEAST WISCONSIN

CITY           SKY/WX    TMP DP  RH WIND       PRES   REMARKS
ANTIGO         MOSUNNY   25  12  59 SW7       30.17F WCI  17
SHAWANO        MOSUNNY   32  13  46 SW7       30.24F WCI  25
OCONTO         PTSUNNY   29  13  50 SW6       30.25F WCI  23
STURGEON BAY   CLOUDY    26  16  65 W9        30.25F WCI  17
GREEN BAY      SUNNY     30  15  53 W7        30.25F WCI  23
MANITOWOC      SUNNY     30  16  56 SW8       30.26F WCI  22
APPLETON       PTSUNNY   28  10  47 W9        30.23  WCI  20
CLINTONVILLE   SUNNY     28  10  47 SW8       30.24F WCI  20
OSHKOSH        SUNNY     28  14  55 SW8       30.26F WCI  20
$$

WIZ032>034-041-042-053>061-222000-
SOUTHWEST WISCONSIN

CITY           SKY/WX    TMP DP  RH WIND       PRES   REMARKS
LA CROSSE      CLOUDY    28  15  58 S9        30.26F WCI  19
SPARTA         MOSUNNY   28  14  56 S8        30.26F WCI  20
VIROQUA        CLOUDY    27  17  66 SW9       30.25S WCI  18
BOSCOBEL       MOSUNNY   32  14  47 SW8       30.29F WCI  25
PRAIRIE DU CHI MOSUNNY   30  12  47 S6        30.30F WCI  24
PLATTEVILLE    SUNNY     31  17  54 SW9       30.28F WCI  23
$$

WIZ056-057-062-063-064-067-068-222000-
SOUTH CENTRAL WISCONSIN

CITY           SKY/WX    TMP DP  RH WIND       PRES   REMARKS
REEDSBURG      SUNNY     29  13  52 SW8       30.26F WCI  21
BARABOO/DELLS  SUNNY     29  12  48 SW9       30.25F WCI  21
LONE ROCK      SUNNY     31  15  52 SW6       30.28F WCI  25
MINERAL POINT  SUNNY     32  18  55 SW9       30.26F WCI  24
MADISON        PTSUNNY   30  13  49 VRB5      30.26F WCI  25
MIDDLETON      SUNNY     32  14  47 SW8       30.26F WCI  25
WATERTOWN      SUNNY     31  15  52 SW10      30.26F WCI  22
MONROE         SUNNY     30  16  55 SW9G16    30.26F WCI  22
JANESVILLE     SUNNY     34  16  47 SW8       30.27F WCI  27
$$

WIZ051-052-058>065-066-070>072-222000-
SOUTHEAST WISCONSIN

CITY           SKY/WX    TMP DP  RH WIND       PRES   REMARKS
MILWAUKEE      MOSUNNY   32  16  51 SW9       30.28F WCI  24
WAUKESHA       SUNNY     28  12  50 SW9       30.27F WCI  20
MILWAUKEE/TIMM SUNNY     32  12  43 SW12      30.28F WCI  23
RACINE         SUNNY     32  16  51 W9        30.29F WCI  24
BURLINGTON     SUNNY     35  20  55 SW8       30.27F WCI  28
KENOSHA        SUNNY     32  15  49 SW9       30.29F WCI  24
FOND DU LAC    SUNNY     30  14  51 W9        30.26F WCI  22
SHEBOYGAN      MIX PCPN  31  16  54 SW7       30.26F WCI  24
WEST BEND      SUNNY     30  14  51 SW7       30.25F WCI  23
JUNEAU         SUNNY     29  15  56 SW12      30.27F WCI  19
$$

LSZ147-162-222000-
LAKE SUPERIOR

STATION/POSITION TIME  TEMP    WIND        PRES    WAVE
                       AIR SEA DIR/SP/G            HT/PER
                 (UTC) (F)     (DEG/KT/KT) (MB)    (FT/S)
DEVILS ISLAND    1900   23     230/ 13/ 16 1022.4F
SAXON HARBOR     1840   25     210/  6/ 11 1021.3F
$$

LMZ867-665-643>646-222000-
LAKE MICHIGAN

STATION/POSITION TIME  TEMP    WIND        PRES    WAVE
                       AIR SEA DIR/SP/G            HT/PER
                 (UTC) (F)     (DEG/KT/KT) (MB)    (FT/S)
N MID LAKE BUOY  1850   31 47  230/ 10/ 14 1024.8F   1/ 3
NORTHPORT PIER   1853   29     270/  2/ 10 1023.7F
KEWAUNEE LAKESHO 1842   29     270/  7/ 12 1023.8F
SHEBOYGAN LAKESH 1900   29     230/  7/  9 1025.5F
PORT WASHINGTON  1830   30     240/  8/ 15 1026.1F
MILWAUKEE LAKESH 1850   31     260/  9/ 10   N/A
S MID LAKE BUOY  1750   31 47  280/ 10/ 12 1027.4F   3/ 6
KENOSHA   LAKESH 1900   31     270/  5/ 10 1025.4
$$

TC  - TEMPERATURE IN CELSIUS
VSB - VISIBILITY IN STATUTE MILES
WCI - WIND CHILL INDEX
HX  - HEAT INDEX





USA.gov is the U.S. government's official web portal to all federal, state and local government web resources and services.